Flag for India Weather past 2 weeks in Bhilwara, Rajasthan, India

Now
82 °F

Haze.


Feels Like: 86 °F
Forecast: 79 / 96 °F
Wind: 6 mph from West

Location: Jaipur / Sanganer

Current Time: Aug 22, 2014 at 2:22:54 AM

Latest Report: Aug 22, 2014 at 1:00 AM


Visibility: 2 mi

Pressure: 29.68 "Hg

Humidity: 66%

Dew point: 70 °F

Location of BhilwaraLocation

Historic Weather in Bhilwara — Graph

°F

Bhilwara temperature yesterday

Maximum temperature yesterday: 97 °F (at 4:00 PM)
Minimum temperature yesterday: 79 °F (at 6:00 AM)
Average temperature yesterday: 87 °F

Past Weeks' High & Low Weather Summary

 TemperatureHumidityPressure
High97 °F (Aug 20, 4:00 PM)100% (Aug 7, 10:00 PM)30.01 "Hg (Aug 7, 10:00 PM)
Low75 °F (Aug 8, 8:00 AM)34% (Aug 21, 4:00 PM)29.47 "Hg (Aug 7, 2:00 AM)
Average83 °F77%29.67 "Hg
* Reported Aug 7 1:00 AM — Aug 22 1:00 AM, Bhilwara, Weather by CustomWeather, © 2014

Note: Actual official high and low records may vary slightly from our data, if they occured in-between our weather recording intervals... More about our weather records

Advertising

Bhilwara weather history for previous 24 hours

 ConditionsComfort  
Time TempWeatherWind HumidityBarometerVisibility
1:00 AM
Aug 22
82 °FHaze.6 mph66%29.68 "Hg2 mi
12:00 AM82 °FHaze.3 mph66%29.71 "Hg2 mi
11:00 PM
Aug 21
84 °FHaze.5 mph58%30.01 "Hg2 mi
10:00 PM86 °FHaze.5 mph55%29.71 "Hg2 mi
9:00 PM88 °FHaze.5 mph52%29.68 "Hg2 mi
8:00 PM90 °FHaze.3 mph49%29.68 "Hg2 mi
7:00 PM90 °FHaze.6 mph46%29.65 "Hg2 mi
6:00 PM93 °FHaze.10 mph39%29.65 "Hg2 mi
5:00 PM95 °FHaze.9 mph36%29.65 "Hg2 mi
4:00 PM97 °FHaze.10 mph34%29.65 "Hg2 mi
3:00 PM95 °FHaze.10 mph39%29.68 "Hg2 mi
2:00 PM95 °FHaze.7 mph41%29.71 "Hg2 mi
1:00 PM93 °FHaze.8 mph47%29.74 "Hg2 mi
12:00 PM91 °FHaze.12 mph49%29.77 "Hg2 mi
11:00 AM90 °FHaze.14 mph52%29.77 "Hg2 mi
10:00 AM88 °FHaze.10 mph55%29.77 "Hg2 mi
9:00 AM86 °FHaze.9 mph62%29.74 "Hg2 mi
8:00 AM82 °FHaze.9 mph66%29.74 "Hg2 mi
7:00 AM81 °FHaze.7 mph70%29.71 "Hg2 mi
6:00 AM79 °FHaze.5 mph79%29.71 "Hg2 mi
5:00 AM81 °FHaze.6 mph74%29.68 "Hg2 mi
4:00 AM81 °FHaze.6 mph74%29.68 "Hg2 mi
3:00 AM81 °FHaze.6 mph74%29.68 "Hg2 mi
2:00 AM82 °FHaze.5 mph70%29.68 "Hg2 mi
Weather by CustomWeather, © 2014

See weather overviewHow to use our weather pages